{"data":{"norad_id":39250,"epoch":"2026-05-25T03:28:19.983072Z","epoch_age_seconds":62238,"freshness":"FRESH","line1":"1 39250U 13048B   26145.14467573 -.00000093  00000+0 -73771-3 0  9991","line2":"2 39250  82.4873 358.6451 0018370 298.5781  61.3450 12.43029629576087","mean_motion":12.43029629,"eccentricity":0.001837,"inclination_deg":82.4873,"raan_deg":358.6451,"arg_perigee_deg":298.5781,"mean_anomaly_deg":61.345,"bstar":-0.00073771,"rev_number":57608,"period_min":115.84599163243,"perigee_km":1479.3255826241,"apogee_km":1508.2470288494,"semimajor_km":7871.9233057367,"source":"CELESTRAK","updated_at":"2026-05-25T13:37:55.374111Z"}}